Regional Weather Roundup
Issued by NWS

Home | Current Version | Previous Version | Graphics & Text | Print | Product List | Glossary On
Versions: 1 2 3 4 5 6 7 8 9 10 11 12 13 14 15 16 17 18 19 20 21 22 23 24 25 26 27 28 29 30 31 32 33 34 35 36 37 38 39 40 41 42 43 44 45 46 47 48 49 50
285
ASUS43 KIND 181559
RWRIN

WEATHER ROUNDUP FOR INDIANA
NATIONAL WEATHER SERVICE INDIANAPOLIS IN
1100 AM EST SUN FEB 18 2018

NOTE: "FAIR" INDICATES FEW OR NO CLOUDS BELOW 12,000 FEET WITH NO
SIGNIFICANT WEATHER AND/OR OBSTRUCTIONS TO VISIBILITY.

* - STATION DOES NOT REPORT WEATHER SUCH AS PRECIPITATION OR FOG.

+ - STATION NOT QUALITY CONTROLLED BY THE NATIONAL WEATHER SERVICE.
    USE DATA WITH CAUTION...ESPECIALLY DEWPOINT AND RELATIVE
    HUMIDITY OBSERVATIONS.

INZ001>003-010>013-019-020-181700-
NORTHWEST INDIANA

CITY           SKY/WX    TMP DP  RH WIND       PRES   REMARKS
GARY /AIRPORT/ PTSUNNY   27  25  93 SE10      30.31R WCI  17
KNOX *+        CLOUDY    28  25  86 S15       30.29R WCI  17
MONTICELLO +   CLOUDY    29  26  86 S8G16     30.30F WCI  21

$$

LMZ046-743>745-181700-
SOUTHERN LAKE MICHIGAN

STATION/POSITION TIME  TEMP    WIND        PRES    WAVE
                       AIR SEA DIR/SP/G            HT
                 (UTC) (F)     (DEG/KT/KT) (MB)    (FT)
BURNS HARBOR     1540   25     180/ 11/ 21 1026.1R
MICHIGAN CITY    1530   25     150/ 12/ 15   N/A

$$

INZ004-005-014>016-021>024-181700-
NORTH CENTRAL INDIANA

CITY           SKY/WX    TMP DP  RH WIND       PRES   REMARKS
GOSHEN         FAIR      29  23  78 S13       30.29S HAZE    WCI  19
PERU/GRISSOM   CLOUDY    30  30 100 S16G23    30.31F WCI  18
SOUTH BEND     PTSUNNY   26  22  84 S14       30.29S WCI  14
WARSAW +       CLOUDY    30  27  86 S7        30.30S WCI  23

$$

INZ006>009-017-018-025>027-181700-
NORTHEAST INDIANA

CITY           SKY/WX    TMP DP  RH WIND       PRES   REMARKS
AUBURN +       CLOUDY    30  27  86 S7        30.32F WCI  23
FORT WAYNE     CLOUDY    30  25  81 S14       30.34S WCI  19
KENDALLVILLE + CLOUDY    29  24  81 S13       30.30F WCI  19

$$

INZ028-029-035-036-043>045-051>053-181700-
WEST CENTRAL INDIANA

CITY           SKY/WX    TMP DP  RH WIND       PRES   REMARKS
LAFAYETTE      PTSUNNY   31  28  89 SE15      30.30F WCI  20
TERRE HAUTE    FAIR      36  31  82 SE12      30.32F WCI  28

$$

INZ030>032-037>040-046>048-054>057-064-065-181700-
CENTRAL INDIANA

CITY           SKY/WX    TMP DP  RH WIND       PRES   REMARKS
COLUMBUS       PTSUNNY   36  28  75 SE10      30.37F WCI  28
GREENWOOD *+   CLOUDY   N/A N/A N/A S13G18    30.36S
INDIANAPOLIS   CLOUDY    32  28  85 SE17      30.34S WCI  21
-EAGLE CREEK   CLOUDY    33  26  75 S10       30.34R WCI  25
KOKOMO +       CLOUDY    31  27  85 S18       30.33F WCI  19
MT COMFORT *+  CLOUDY    32  30  93 S10G16    30.35S WCI  24
SHELBYVILLE    CLOUDY    34  27  75 SE14      30.35S WCI  25
ZIONSVILLE +   PTSUNNY   30  27  88 S13       30.33S WCI  20

$$

INZ033-034-041-042-049-050-058-059-181700-
EAST CENTRAL INDIANA

CITY           SKY/WX    TMP DP  RH WIND       PRES   REMARKS
MUNCIE         CLOUDY    32  26  78 SE7       30.34S WCI  26
RICHMOND +     CLOUDY    32  30  93 SE12      30.36R WCI  23

$$

INZ060-061-067>069-081>083-085>088-181700-
SOUTHWEST INDIANA

CITY           SKY/WX    TMP DP  RH WIND       PRES   REMARKS
EVANSVILLE     FOG       38  38 100 E5        30.32F VSB 1   WCI  34
HUNTINGBURG +  FAIR      41  35  79 SE6       30.33F

$$

INZ062-063-066-070>080-084-089>092-181700-
SOUTH CENTRAL AND SOUTHEAST INDIANA

CITY           SKY/WX    TMP DP  RH WIND       PRES   REMARKS
BLOOMINGTON    FAIR      36  32  85 SE8       30.32F WCI  30
SEYMOUR +      FAIR      39  32  75 SE6       30.36F WCI  35

$$





USA.gov is the U.S. government's official web portal to all federal, state and local government web resources and services.